| time (UTC) | temp C | wind direction | speed KPH | gust KPH | rain 1hr cm | rain 24hr cm | rain mn cm | humidity % | barometer mb |
| 20260502170516 | 15 | 315 | 4.8 | 12.9 | 0.00 | 0.03 | 0.03 | 52 | 1011.7 |
| 20260502164017 | 15 | 0 | 4.8 | 12.9 | 0.00 | 0.03 | 0.03 | 55 | 1012.1 |
| 20260502163517 | 15 | 293 | 4.8 | 9.7 | 0.00 | 0.03 | 0.03 | 58 | 1012.2 |
| 20260502163017 | 15 | 315 | 6.4 | 12.9 | 0.00 | 0.03 | 0.03 | 58 | 1012.3 |
| 20260502162517 | 15 | 248 | 8.0 | 17.7 | 0.00 | 0.03 | 0.03 | 60 | 1012.3 |
| 20260502162017 | 14 | 0 | 4.8 | 14.5 | 0.00 | 0.03 | 0.03 | 62 | 1012.3 |
| 20260502161518 | 14 | 0 | 4.8 | 14.5 | 0.00 | 0.03 | 0.03 | 62 | 1012.2 |
| 20260502161019 | 14 | 338 | 4.8 | 9.7 | 0.00 | 0.03 | 0.03 | 64 | 1012.1 |
| 20260502160517 | 14 | 315 | 3.2 | 11.3 | 0.00 | 0.03 | 0.03 | 65 | 1012.1 |
| 20260502152018 | 13 | 293 | 8.0 | 14.5 | 0.00 | 0.03 | 0.03 | 66 | 1012.4 |
| 20260502151517 | 13 | 315 | 6.4 | 12.9 | 0.00 | 0.03 | 0.03 | 66 | 1012.2 |
| 20260502151018 | 13 | 315 | 6.4 | 12.9 | 0.00 | 0.03 | 0.03 | 67 | 1012.2 |
| 20260502150519 | 13 | 315 | 8.0 | 16.1 | 0.00 | 0.03 | 0.03 | 67 | 1012.3 |
| 20260502130517 | 12 | 270 | 4.8 | 9.7 | 0.00 | 0.03 | 0.03 | 74 | 1012.6 |
| 20260502123517 | 12 | 270 | 4.8 | 8.0 | 0.00 | 0.03 | 0.03 | 79 | 1012.4 |
| 20260502123017 | 12 | 270 | 3.2 | 6.4 | 0.00 | 0.03 | 0.03 | 78 | 1012.5 |
| 20260502122517 | 12 | 270 | 4.8 | 9.7 | 0.00 | 0.03 | 0.03 | 79 | 1012.4 |
| 20260502122018 | 12 | 270 | 4.8 | 11.3 | 0.00 | 0.03 | 0.03 | 79 | 1012.2 |
| 20260502121517 | 12 | 225 | 1.6 | 4.8 | 0.00 | 0.03 | 0.03 | 80 | 1012.2 |
| 20260502121017 | 12 | 225 | 1.6 | 6.4 | 0.00 | 0.03 | 0.03 | 80 | 1012.2 |
| 20260502120517 | 12 | 225 | 1.6 | 4.8 | 0.00 | 0.03 | 0.03 | 80 | 1012.2 |
| 20260502115517 | 12 | 0.0 | 1.6 | 0.00 | 0.03 | 0.03 | 81 | 1012.2 | |
| 20260502115018 | 11 | 315 | 1.6 | 4.8 | 0.00 | 0.03 | 0.03 | 82 | 1012.2 |
| 20260502114517 | 11 | 0.0 | 3.2 | 0.00 | 0.03 | 0.03 | 82 | 1012.2 | |
| 20260502114038 | 11 | 0.0 | 3.2 | 0.00 | 0.03 | 0.03 | 82 | 1012.2 | |
| 20260502113517 | 11 | 0.0 | 4.8 | 0.00 | 0.03 | 0.03 | 83 | 1012.2 | |
| 20260502113017 | 11 | 0.0 | 1.6 | 0.00 | 0.03 | 0.03 | 84 | 1012.2 | |
| 20260502112539 | 11 | 0.0 | 1.6 | 0.00 | 0.03 | 0.03 | 84 | 1012.2 | |
| 20260502112018 | 11 | 0.0 | 3.2 | 0.00 | 0.03 | 0.03 | 85 | 1012.2 | |
| 20260502111522 | 11 | 315 | 1.6 | 6.4 | 0.00 | 0.03 | 0.03 | 85 | 1012.2 |
| 20260502111038 | 11 | 315 | 1.6 | 4.8 | 0.00 | 0.03 | 0.03 | 85 | 1012.1 |
| 20260502110517 | 11 | 0.0 | 3.2 | 0.00 | 0.03 | 0.03 | 85 | 1012.0 | |
| 20260502110017 | 11 | 0.0 | 3.2 | 0.00 | 0.03 | 0.03 | 86 | 1012.0 | |
| 20260502105517 | 11 | 0.0 | 3.2 | 0.00 | 0.03 | 0.03 | 86 | 1011.9 | |
| 20260502105037 | 11 | 0.0 | 1.6 | 0.00 | 0.03 | 0.03 | 86 | 1011.8 | |
| 20260502104518 | 11 | 248 | 1.6 | 3.2 | 0.00 | 0.03 | 0.03 | 86 | 1011.8 |
| 20260502104017 | 11 | 0.0 | 0.0 | 0.03 | 0.03 | 0.03 | 85 | 1011.7 | |
| 20260502103517 | 11 | 0.0 | 0.0 | 0.03 | 0.03 | 0.03 | 85 | 1011.6 | |
| 20260502103017 | 11 | 0.0 | 0.0 | 0.03 | 0.03 | 0.03 | 86 | 1011.5 | |
| 20260502102517 | 11 | 0.0 | 0.0 | 0.03 | 0.03 | 0.03 | 85 | 1011.5 | |
| 20260502102017 | 11 | 0.0 | 0.0 | 0.03 | 0.03 | 0.03 | 85 | 1011.5 | |
| 20260502101517 | 11 | 0.0 | 0.0 | 0.03 | 0.03 | 0.03 | 85 | 1011.4 | |
| 20260502101017 | 11 | 0.0 | 0.0 | 0.03 | 0.03 | 0.03 | 85 | 1011.5 | |
| 20260502100518 | 11 | 0.0 | 0.0 | 0.03 | 0.03 | 0.03 | 85 | 1011.5 | |
| 20260502091016 | 11 | 248 | 3.2 | 9.7 | 0.00 | 0.00 | 0.00 | 83 | 1011.8 |
| 20260502090518 | 11 | 225 | 6.4 | 14.5 | 0.00 | 0.00 | 0.00 | 83 | 1011.9 |
| 20260502071516 | 11 | 225 | 1.6 | 8.0 | 0.00 | 0.00 | 0.00 | 75 | 1011.9 |
| 20260502071017 | 11 | 225 | 3.2 | 8.0 | 0.00 | 0.00 | 0.00 | 75 | 1011.8 |
| 20260502070518 | 11 | 225 | 3.2 | 8.0 | 0.00 | 0.00 | 0.00 | 74 | 1011.9 |
| 20260502070017 | 11 | 203 | 1.6 | 4.8 | 0.00 | 0.00 | 0.00 | 74 | 1011.8 |
| 20260502065516 | 11 | 203 | 1.6 | 6.4 | 0.00 | 0.00 | 0.00 | 73 | 1011.7 |
| 20260502065036 | 11 | 203 | 1.6 | 3.2 | 0.00 | 0.00 | 0.00 | 73 | 1011.6 |
| 20260502064517 | 11 | 225 | 1.6 | 6.4 | 0.00 | 0.00 | 0.00 | 73 | 1011.9 |
| 20260502064016 | 11 | 225 | 3.2 | 11.3 | 0.00 | 0.00 | 0.00 | 72 | 1011.9 |
| 20260502063516 | 12 | 225 | 3.2 | 9.7 | 0.00 | 0.00 | 0.00 | 72 | 1011.9 |
| 20260502063017 | 12 | 203 | 6.4 | 11.3 | 0.00 | 0.00 | 0.00 | 72 | 1012.0 |
| 20260502062517 | 12 | 225 | 4.8 | 11.3 | 0.00 | 0.00 | 0.00 | 72 | 1012.1 |
| 20260502062017 | 12 | 225 | 3.2 | 8.0 | 0.00 | 0.00 | 0.00 | 71 | 1012.2 |
| 20260502061516 | 12 | 225 | 3.2 | 11.3 | 0.00 | 0.00 | 0.00 | 71 | 1012.2 |
| 20260502061016 | 12 | 225 | 6.4 | 14.5 | 0.00 | 0.00 | 0.00 | 70 | 1012.2 |
| 20260502060536 | 12 | 225 | 4.8 | 9.7 | 0.00 | 0.00 | 0.00 | 70 | 1012.3 |
| 20260502060017 | 12 | 203 | 4.8 | 9.7 | 0.00 | 0.00 | 0.00 | 69 | 1012.2 |
| 20260502055517 | 12 | 225 | 3.2 | 6.4 | 0.00 | 0.00 | 0.00 | 69 | 1012.2 |
| 20260502055016 | 12 | 225 | 3.2 | 9.7 | 0.00 | 0.00 | 0.00 | 68 | 1012.1 |
| 20260502054538 | 12 | 270 | 3.2 | 9.7 | 0.00 | 0.00 | 0.00 | 68 | 1012.0 |
| 20260502054016 | 12 | 225 | 3.2 | 6.4 | 0.00 | 0.00 | 0.00 | 69 | 1012.1 |
| 20260502053516 | 12 | 248 | 4.8 | 8.0 | 0.00 | 0.00 | 0.00 | 69 | 1012.0 |
| 20260502053038 | 12 | 270 | 3.2 | 9.7 | 0.00 | 0.00 | 0.00 | 69 | 1012.0 |
| 20260502052518 | 12 | 225 | 3.2 | 8.0 | 0.00 | 0.00 | 0.00 | 70 | 1012.1 |
| 20260502052016 | 12 | 248 | 3.2 | 8.0 | 0.00 | 0.00 | 0.00 | 70 | 1012.1 |
| 20260502051516 | 12 | 225 | 4.8 | 9.7 | 0.00 | 0.00 | 0.00 | 70 | 1012.1 |
| 20260502051016 | 12 | 203 | 3.2 | 9.7 | 0.00 | 0.00 | 0.00 | 69 | 1012.0 |
| 20260502050517 | 12 | 225 | 4.8 | 12.9 | 0.00 | 0.00 | 0.00 | 69 | 1012.1 |
| 20260502050016 | 12 | 225 | 4.8 | 14.5 | 0.00 | 0.00 | 0.00 | 69 | 1012.0 |
| 20260502045516 | 12 | 225 | 4.8 | 9.7 | 0.00 | 0.00 | 0.00 | 69 | 1012.0 |
| 20260502045016 | 12 | 203 | 4.8 | 11.3 | 0.00 | 0.00 | 0.00 | 69 | 1011.9 |
| 20260502044537 | 12 | 225 | 6.4 | 12.9 | 0.00 | 0.00 | 0.00 | 69 | 1011.8 |
| 20260502044017 | 12 | 225 | 4.8 | 9.7 | 0.00 | 0.00 | 0.00 | 69 | 1011.7 |
| 20260502043516 | 12 | 225 | 6.4 | 12.9 | 0.00 | 0.00 | 0.00 | 69 | 1011.8 |
| 20260502043016 | 12 | 225 | 4.8 | 11.3 | 0.00 | 0.00 | 0.00 | 69 | 1011.8 |
| 20260502042516 | 12 | 225 | 3.2 | 6.4 | 0.00 | 0.00 | 0.00 | 69 | 1011.9 |
| 20260502042016 | 12 | 225 | 6.4 | 14.5 | 0.00 | 0.00 | 0.00 | 69 | 1011.9 |
| 20260502041516 | 12 | 248 | 4.8 | 12.9 | 0.00 | 0.00 | 0.00 | 69 | 1012.1 |
| 20260502041016 | 12 | 225 | 6.4 | 14.5 | 0.00 | 0.00 | 0.00 | 70 | 1012.1 |
| 20260502040517 | 12 | 225 | 6.4 | 16.1 | 0.00 | 0.00 | 0.00 | 70 | 1012.1 |
| 20260502040017 | 12 | 225 | 3.2 | 9.7 | 0.00 | 0.00 | 0.00 | 71 | 1012.1 |
| 20260502035538 | 12 | 225 | 6.4 | 14.5 | 0.00 | 0.00 | 0.00 | 72 | 1012.1 |
| 20260502035017 | 12 | 203 | 4.8 | 16.1 | 0.00 | 0.00 | 0.00 | 73 | 1012.2 |
| 20260502034517 | 12 | 203 | 4.8 | 14.5 | 0.00 | 0.00 | 0.00 | 72 | 1012.2 |
| 20260502034017 | 12 | 225 | 6.4 | 12.9 | 0.00 | 0.00 | 0.00 | 72 | 1012.1 |
| 20260502033517 | 12 | 225 | 3.2 | 8.0 | 0.00 | 0.00 | 0.00 | 72 | 1011.9 |
| 20260502033037 | 12 | 225 | 3.2 | 11.3 | 0.00 | 0.00 | 0.00 | 72 | 1011.9 |
| 20260502032516 | 12 | 225 | 4.8 | 19.3 | 0.00 | 0.00 | 0.00 | 73 | 1012.0 |
| 20260502032017 | 12 | 225 | 6.4 | 17.7 | 0.00 | 0.00 | 0.00 | 74 | 1012.0 |
| 20260502031516 | 12 | 203 | 4.8 | 14.5 | 0.00 | 0.00 | 0.00 | 74 | 1011.9 |
| 20260502031016 | 12 | 225 | 6.4 | 14.5 | 0.00 | 0.00 | 0.00 | 75 | 1011.9 |
| 20260502030517 | 12 | 225 | 4.8 | 14.5 | 0.00 | 0.00 | 0.00 | 76 | 1012.0 |
| 20260502030018 | 12 | 225 | 4.8 | 12.9 | 0.00 | 0.00 | 0.00 | 77 | 1012.2 |
| 20260502025517 | 12 | 225 | 6.4 | 12.9 | 0.00 | 0.00 | 0.00 | 77 | 1012.3 |
| 20260502025018 | 12 | 225 | 6.4 | 16.1 | 0.00 | 0.00 | 0.00 | 78 | 1012.3 |
| 20260502024516 | 12 | 203 | 4.8 | 14.5 | 0.00 | 0.00 | 0.00 | 78 | 1012.3 |
| 20260502024016 | 12 | 225 | 6.4 | 14.5 | 0.00 | 0.00 | 0.00 | 79 | 1012.3 |
| 20260502023517 | 12 | 225 | 4.8 | 14.5 | 0.00 | 0.00 | 0.00 | 80 | 1012.3 |
| 20260502023017 | 12 | 225 | 4.8 | 11.3 | 0.00 | 0.00 | 0.00 | 80 | 1012.2 |
| 20260502022516 | 12 | 225 | 3.2 | 12.9 | 0.00 | 0.00 | 0.00 | 80 | 1012.3 |
| 20260502022058 | 12 | 225 | 1.6 | 8.0 | 0.00 | 0.00 | 0.00 | 80 | 1012.3 |
| 20260502021517 | 12 | 203 | 1.6 | 8.0 | 0.00 | 0.00 | 0.00 | 80 | 1012.3 |
| 20260502021057 | 12 | 225 | 3.2 | 9.7 | 0.00 | 0.00 | 0.00 | 79 | 1012.1 |
| 20260502020517 | 12 | 225 | 1.6 | 6.4 | 0.00 | 0.00 | 0.00 | 79 | 1012.1 |
| 20260502020036 | 12 | 0.0 | 3.2 | 0.00 | 0.00 | 0.00 | 79 | 1012.1 | |
| 20260502015517 | 12 | 225 | 3.2 | 12.9 | 0.00 | 0.00 | 0.00 | 79 | 1012.1 |
| 20260502015018 | 12 | 225 | 1.6 | 8.0 | 0.00 | 0.00 | 0.00 | 78 | 1012.1 |
| 20260502014516 | 12 | 203 | 1.6 | 8.0 | 0.00 | 0.00 | 0.00 | 78 | 1012.0 |
| 20260502014036 | 12 | 225 | 3.2 | 11.3 | 0.00 | 0.00 | 0.00 | 78 | 1011.9 |
| 20260502013516 | 12 | 225 | 3.2 | 8.0 | 0.00 | 0.00 | 0.00 | 78 | 1012.0 |
| 20260502013016 | 12 | 225 | 3.2 | 9.7 | 0.00 | 0.00 | 0.00 | 77 | 1011.9 |
| 20260502012516 | 12 | 225 | 3.2 | 8.0 | 0.00 | 0.00 | 0.00 | 77 | 1012.0 |
| 20260502012016 | 12 | 225 | 1.6 | 8.0 | 0.00 | 0.00 | 0.00 | 77 | 1011.9 |
| 20260502011558 | 12 | 180 | 1.6 | 8.0 | 0.00 | 0.00 | 0.00 | 76 | 1011.7 |
| 20260502011016 | 12 | 158 | 1.6 | 6.4 | 0.00 | 0.00 | 0.00 | 76 | 1011.8 |
| 20260502010516 | 12 | 203 | 1.6 | 4.8 | 0.00 | 0.00 | 0.00 | 75 | 1011.7 |
| 20260502010018 | 12 | 0.0 | 3.2 | 0.00 | 0.00 | 0.00 | 75 | 1011.7 | |
| 20260502005536 | 12 | 158 | 1.6 | 8.0 | 0.00 | 0.00 | 0.00 | 75 | 1011.6 |
| 20260502005016 | 12 | 0.0 | 3.2 | 0.00 | 0.00 | 0.00 | 75 | 1011.6 | |
| 20260502004516 | 12 | 158 | 1.6 | 3.2 | 0.00 | 0.00 | 0.00 | 75 | 1011.6 |
| 20260502004016 | 12 | 203 | 1.6 | 6.4 | 0.00 | 0.00 | 0.00 | 75 | 1011.5 |
| 20260502003518 | 12 | 180 | 1.6 | 3.2 | 0.00 | 0.00 | 0.00 | 75 | 1011.6 |
| 20260502003016 | 12 | 203 | 1.6 | 9.7 | 0.00 | 0.00 | 0.00 | 74 | 1011.6 |
| 20260502002518 | 12 | 180 | 1.6 | 6.4 | 0.00 | 0.00 | 0.00 | 74 | 1011.5 |
| 20260502002016 | 12 | 158 | 1.6 | 4.8 | 0.00 | 0.00 | 0.00 | 74 | 1011.5 |
| 20260502001516 | 12 | 158 | 1.6 | 4.8 | 0.00 | 0.00 | 0.00 | 74 | 1011.4 |
| 20260502001016 | 12 | 158 | 3.2 | 12.9 | 0.00 | 0.00 | 0.00 | 73 | 1011.3 |
| 20260502000517 | 12 | 135 | 1.6 | 11.3 | 0.00 | 0.00 | 0.00 | 73 | 1011.4 |
| 20260502000016 | 12 | 135 | 3.2 | 11.3 | 0.00 | 0.00 | 0.00 | 73 | 1011.4 |
| 20260501235516 | 12 | 158 | 3.2 | 14.5 | 0.00 | 0.00 | 0.00 | 72 | 1011.4 |
| 20260501235016 | 13 | 158 | 4.8 | 14.5 | 0.00 | 0.00 | 0.00 | 72 | 1011.3 |
| 20260501234518 | 13 | 158 | 3.2 | 11.3 | 0.00 | 0.00 | 0.00 | 72 | 1011.1 |
| 20260501234016 | 13 | 135 | 1.6 | 6.4 | 0.00 | 0.00 | 0.00 | 72 | 1011.1 |
| 20260501233516 | 13 | 135 | 3.2 | 9.7 | 0.00 | 0.00 | 0.00 | 71 | 1011.1 |
| 20260501233016 | 13 | 158 | 1.6 | 6.4 | 0.00 | 0.00 | 0.00 | 71 | 1011.0 |
| 20260501232618 | 13 | 135 | 3.2 | 8.0 | 0.00 | 0.00 | 0.00 | 70 | 1011.0 |
| 20260501232057 | 13 | 180 | 1.6 | 4.8 | 0.00 | 0.00 | 0.00 | 70 | 1011.1 |
| 20260501231557 | 13 | 135 | 3.2 | 9.7 | 0.00 | 0.00 | 0.00 | 69 | 1011.0 |
| 20260501231016 | 13 | 158 | 3.2 | 11.3 | 0.00 | 0.00 | 0.00 | 69 | 1011.0 |
| 20260501230516 | 13 | 135 | 4.8 | 16.1 | 0.00 | 0.00 | 0.00 | 68 | 1010.9 |
| 20260501230017 | 14 | 135 | 1.6 | 9.7 | 0.00 | 0.00 | 0.00 | 68 | 1010.9 |
| 20260501225517 | 14 | 135 | 1.6 | 6.4 | 0.00 | 0.00 | 0.00 | 68 | 1010.8 |
| 20260501225016 | 14 | 135 | 4.8 | 12.9 | 0.00 | 0.00 | 0.00 | 67 | 1010.7 |
| 20260501224516 | 14 | 113 | 4.8 | 14.5 | 0.00 | 0.00 | 0.00 | 65 | 1010.7 |
| 20260501224017 | 15 | 158 | 3.2 | 12.9 | 0.00 | 0.00 | 0.00 | 65 | 1010.7 |
| 20260501223539 | 15 | 135 | 4.8 | 12.9 | 0.00 | 0.00 | 0.00 | 64 | 1010.9 |
| 20260501223016 | 15 | 225 | 3.2 | 14.5 | 0.00 | 0.00 | 0.00 | 64 | 1010.9 |
| 20260501222517 | 15 | 135 | 3.2 | 11.3 | 0.00 | 0.00 | 0.00 | 63 | 1010.9 |
| 20260501222016 | 15 | 158 | 6.4 | 16.1 | 0.00 | 0.00 | 0.00 | 62 | 1010.8 |
| 20260501221516 | 15 | 135 | 4.8 | 16.1 | 0.00 | 0.00 | 0.00 | 62 | 1010.9 |
| 20260501221016 | 15 | 135 | 3.2 | 11.3 | 0.00 | 0.00 | 0.00 | 62 | 1010.9 |
| 20260501220516 | 15 | 135 | 3.2 | 14.5 | 0.00 | 0.00 | 0.00 | 62 | 1010.9 |
| 20260501220058 | 15 | 180 | 4.8 | 14.5 | 0.00 | 0.00 | 0.00 | 61 | 1011.1 |
| 20260501215516 | 15 | 158 | 3.2 | 16.1 | 0.00 | 0.00 | 0.00 | 60 | 1011.1 |
| 20260501215016 | 15 | 180 | 4.8 | 12.9 | 0.00 | 0.00 | 0.00 | 60 | 1011.1 |
| 20260501214516 | 15 | 135 | 4.8 | 14.5 | 0.00 | 0.00 | 0.00 | 61 | 1011.1 |
| 20260501214016 | 15 | 135 | 6.4 | 19.3 | 0.00 | 0.00 | 0.00 | 60 | 1011.0 |
| 20260501213517 | 15 | 135 | 6.4 | 19.3 | 0.00 | 0.00 | 0.00 | 60 | 1011.0 |
| 20260501213016 | 15 | 135 | 6.4 | 19.3 | 0.00 | 0.00 | 0.00 | 59 | 1011.1 |
| 20260501212516 | 15 | 135 | 6.4 | 24.1 | 0.00 | 0.00 | 0.00 | 59 | 1011.0 |
| 20260501212036 | 15 | 158 | 6.4 | 24.1 | 0.00 | 0.00 | 0.00 | 59 | 1011.1 |
| 20260501211516 | 15 | 135 | 6.4 | 17.7 | 0.00 | 0.03 | 0.00 | 59 | 1010.9 |
| 20260501211016 | 15 | 158 | 6.4 | 19.3 | 0.00 | 0.05 | 0.00 | 59 | 1011.0 |
| 20260501210517 | 15 | 158 | 6.4 | 16.1 | 0.00 | 0.05 | 0.00 | 58 | 1011.0 |
| 20260501210016 | 15 | 158 | 4.8 | 17.7 | 0.00 | 0.05 | 0.00 | 58 | 1011.0 |
| 20260501205516 | 15 | 135 | 4.8 | 14.5 | 0.00 | 0.05 | 0.00 | 58 | 1011.0 |
| 20260501205016 | 15 | 158 | 4.8 | 12.9 | 0.00 | 0.05 | 0.00 | 57 | 1011.0 |
| 20260501204516 | 15 | 203 | 4.8 | 16.1 | 0.00 | 0.05 | 0.00 | 57 | 1011.1 |
| 20260501204016 | 15 | 158 | 6.4 | 16.1 | 0.00 | 0.05 | 0.00 | 57 | 1011.1 |
| 20260501203516 | 15 | 135 | 6.4 | 20.9 | 0.00 | 0.05 | 0.00 | 56 | 1011.1 |
| 20260501203016 | 16 | 135 | 8.0 | 17.7 | 0.00 | 0.05 | 0.00 | 54 | 1011.1 |
| 20260501202516 | 16 | 135 | 4.8 | 16.1 | 0.00 | 0.05 | 0.00 | 54 | 1011.1 |
| 20260501202017 | 16 | 135 | 4.8 | 17.7 | 0.00 | 0.05 | 0.00 | 54 | 1011.1 |
| 20260501201517 | 16 | 135 | 6.4 | 16.1 | 0.00 | 0.05 | 0.00 | 51 | 1011.1 |
| 20260501201016 | 16 | 135 | 6.4 | 19.3 | 0.00 | 0.05 | 0.00 | 50 | 1011.1 |
| 20260501200559 | 16 | 158 | 8.0 | 20.9 | 0.00 | 0.05 | 0.00 | 48 | 1011.1 |
| 20260501200016 | 17 | 135 | 6.4 | 17.7 | 0.00 | 0.05 | 0.00 | 46 | 1011.1 |
| 20260501195536 | 17 | 135 | 4.8 | 14.5 | 0.00 | 0.05 | 0.00 | 46 | 1011.2 |
| 20260501195016 | 17 | 158 | 4.8 | 16.1 | 0.00 | 0.05 | 0.00 | 46 | 1011.1 |
| 20260501194516 | 17 | 135 | 4.8 | 16.1 | 0.00 | 0.05 | 0.00 | 46 | 1011.1 |
| 20260501194016 | 17 | 135 | 4.8 | 14.5 | 0.00 | 0.05 | 0.00 | 45 | 1011.2 |
| 20260501193516 | 17 | 135 | 6.4 | 17.7 | 0.00 | 0.05 | 0.00 | 43 | 1011.2 |
| 20260501193036 | 18 | 158 | 4.8 | 11.3 | 0.00 | 0.05 | 0.00 | 44 | 1011.2 |
| 20260501192517 | 18 | 135 | 6.4 | 17.7 | 0.00 | 0.05 | 0.00 | 43 | 1011.2 |
| 20260501192016 | 18 | 135 | 4.8 | 12.9 | 0.00 | 0.05 | 0.00 | 43 | 1011.3 |
| 20260501191516 | 18 | 158 | 4.8 | 12.9 | 0.00 | 0.05 | 0.00 | 44 | 1011.3 |
| 20260501191016 | 18 | 225 | 6.4 | 17.7 | 0.00 | 0.05 | 0.00 | 43 | 1011.3 |
| 20260501190518 | 18 | 203 | 6.4 | 12.9 | 0.00 | 0.05 | 0.00 | 38 | 1011.3 |
| 20260501190016 | 18 | 225 | 8.0 | 17.7 | 0.00 | 0.05 | 0.00 | 38 | 1011.4 |
| 20260501185516 | 18 | 270 | 4.8 | 11.3 | 0.00 | 0.05 | 0.00 | 38 | 1011.4 |
| 20260501185016 | 19 | 270 | 4.8 | 12.9 | 0.00 | 0.05 | 0.00 | 37 | 1011.5 |
| 20260501184516 | 18 | 225 | 4.8 | 11.3 | 0.00 | 0.05 | 0.00 | 40 | 1011.5 |
| 20260501184016 | 18 | 225 | 8.0 | 16.1 | 0.00 | 0.05 | 0.00 | 39 | 1011.7 |
| 20260501183516 | 18 | 135 | 3.2 | 16.1 | 0.00 | 0.05 | 0.00 | 40 | 1011.7 |
| 20260501183036 | 18 | 180 | 4.8 | 14.5 | 0.00 | 0.05 | 0.00 | 40 | 1011.9 |
| 20260501182515 | 18 | 225 | 6.4 | 16.1 | 0.00 | 0.05 | 0.00 | 39 | 1012.0 |
| 20260501182016 | 18 | 225 | 4.8 | 19.3 | 0.00 | 0.05 | 0.00 | 41 | 1012.0 |
| 20260501181517 | 18 | 203 | 3.2 | 11.3 | 0.00 | 0.05 | 0.00 | 42 | 1012.0 |
| 20260501181016 | 18 | 180 | 3.2 | 9.7 | 0.00 | 0.05 | 0.00 | 42 | 1012.1 |
| 20260501180517 | 18 | 158 | 4.8 | 12.9 | 0.00 | 0.05 | 0.00 | 42 | 1012.0 |
| 20260501180016 | 18 | 225 | 8.0 | 17.7 | 0.00 | 0.05 | 0.00 | 41 | 1012.0 |
| 20260501175516 | 18 | 158 | 4.8 | 14.5 | 0.00 | 0.05 | 0.00 | 42 | 1012.0 |
| 20260501175016 | 18 | 135 | 4.8 | 14.5 | 0.00 | 0.05 | 0.00 | 41 | 1012.1 |
| 20260501174516 | 18 | 225 | 4.8 | 11.3 | 0.00 | 0.05 | 0.00 | 41 | 1012.0 |
| 20260501174017 | 18 | 225 | 3.2 | 12.9 | 0.00 | 0.05 | 0.00 | 41 | 1012.1 |